OneWeb SL0152

operational
NORAD ID: 48043 Int'l Des: 2021-025 Owner: ONEWEBN Country: UK Constellation: oneweb
LEOCIRCULARPOLARONEWEB_TYPE

Über OneWeb SL0152

Beschreibung wird geladen...

Live-Position

3D-Globus wird geladen...

Nächste Überflüge

Höhenverlauf

Altitude vs Time

uPlot chart will show altitude changes over time

Zweizeiliger Elementsatz

1 48043U 21025B 25350.97244828 -.00000217 00000-0 -62917-3 0 9998
2 48043 87.8971 356.4376 0001928 89.7086 270.4265 13.13471623229632
Epoch: 16. Dez. 2025 • Age: 7 hours

Aktueller Status

Höhe 1213.1 km
Geschwindigkeit 7.25 km/s
Subsatellitenpunkt -3.05°S, 170.57°E
Startdatum 25. März 2021
Alter 4.7 years
Typ internet

Technische Details

Klassifizierung Payload
Masse 148.00 kg
Trockenmasse 140.00 kg
Gesamtmasse 148.00 kg
Länge 1.30 m
Durchmesser 1.00 m
Spannweite 5.00 m
Form Trapezoid+2 pan
Hersteller ONEWUS
Bus-Typ ARROW
Phasenstatus In Orbit
Besitzer/Staat ONEWEBN/UK

Große Konstellationen

Loading constellations...